Погода Пировское

Погода Пировское : погода сейчас, прогноз погоды и архив. Всё, что Вы хотите узнать о погоде Пировское!

Поиск расширенной информации на нашем сайте:

Другие новости

Новости СМИ2

Главная страница сайта

Новости сайта

03.07.2017

Напоминаем, что на нашем специализированном сайте Метеоцентр.Азия вы можете получить высокодетализированные автоматические прогнозы погоды по пунктам России, СНГ и мира в авиационном формате (включающие направление и скорость ветра, видимость, явления погоды, количество и форму облачности, нижнюю и верхнюю границу облачности).


Погода Пировское - сегодня

Время (UTC), дата Ветер
(°,м/с) 
Видим.   Явления Облачность Т
(°С)
Тd
(°С)
f(%) Тe
(°С)
Pmin
(гПа)
dP
(гПа)
Po
(мм)
O2
(г/м3)
Тmin Tmax R s Состояние
почвы
18 19.05.18 260 (З) н/о    н/о 
+0.4 -0.1 96 -1  1012.4  0.9  742  299           
21 19.05.18 270 (З) н/о    н/о 
+0.2 -0.5 95 -2  1012.7  0.3  743  299           
00 20.05.18 290 (З) 6-10{11}  н/о    н/о 
-0.6 -0.9 98 -4  1012.8  0.1  743  300  -0.6    равномерный
сухой снег
100% 
03 20.05.18 290 (З) 5-11{14}  н/о    н/о 
+1.4 -3.2 71 -1  1014  1.2  744  298           
06 20.05.18 320 (СЗ) 5-10{14}  н/о    н/о 
+1.2 -1 85 -2  1017.3  3.2  746  299           
09 20.05.18 330 (СЗ) 3{11}  н/о    н/о 
+1.6 +0.6 93 1020  2.7  748  300           
12 20.05.18 320 (СЗ) 1-2  н/о    н/о 
+3.5 +0.5 81 +4  1020.9  2.7  749  298    +4.1     
15 20.05.18 270 (З) н/о    н/о 
+2.1 +1.8 98 +3  1022.1  750  299           
18 20.05.18 280 (З) н/о    н/о 
+1.4 -2.8 74 +1  1022.8  0.6  750  301           
21 20.05.18 200 (Ю) н/о    н/о 
-2.1 -3.3 91 -2  1023  0.1  750  305           
00 21.05.18 170 (Ю) 1-1  н/о    н/о 
+1.8 -2 76 +3  1022.3  -0.3  750  300  -2.6      мокрый или
старый снег
50-90% 
03 21.05.18 210 (ЮЗ) н/о    н/о 
+9.2 -1.2 48 +8  1020.1  -1.7  749  292           
06 21.05.18 210 (ЮЗ) н/о    н/о 
+12.3 -4.3 31 +12  1016.8  -2.9  746  288           
09 21.05.18 170 (Ю) 2{12}  н/о    н/о 
+11.3 -1.9 40 +12  1015  -1.9  745  288           
12 21.05.18 200 (Ю) 4-8{12}  н/о    н/о 
+10.2 +0.6 51 +9  1012.7  -2.2  743  289    +13.2     
15 21.05.18 190 (Ю) н/о    н/о 
+7.2 +4.8 85 +6  1009.8  -3.1  741  290           
18 21.05.18 200 (Ю) н/о    н/о 
+8 +5.5 84 +7  1006.2  -3.5  738  288           
21 21.05.18 220 (ЮЗ) н/о    н/о 
+8.1 +7.1 93 +8  1002.8  -3.2  736  287           
00 22.05.18 230 (ЮЗ) н/о    н/о 
+8.5 +8.4 99 +9  1000.7  -2  734  285  +7         
03 22.05.18 280 (З) н/о    н/о 
+10 +9.9 99 +11  1000  -0.6  734  283           
06 22.05.18 250 (З) н/о    н/о 
+12.8 +9.6 81 +14  998.6  -1.1  733  280           
09 22.05.18 290 (З) 6-10{11}  н/о    н/о 
+9.2 +6 80 +7  1000.4  1.4  734  285           
12 22.05.18 290 (З) 3-5{10}  н/о    н/о 
+8 +3.8 75 +7  1000.7  0.2  734  287    +12.8     
15 22.05.18 270 (З) н/о    н/о 
+7 +3.7 79 +8  999.2  -1.5  733  287           
18 22.05.18 280 (З) н/о    н/о 
+5.3 +3.8 90 +6  998.9  -0.4  733  289           
Время (UTC), дата Ветер
(°,м/с) 
Видим.   Явления Облачность Т
(°С)
Тd
(°С)
f(%) Тe
(°С)
Pmin
(гПа)
dP
(гПа)
Po
(мм)
O2
(г/м3)
Тmin Tmax R s Состояние
почвы

Для получения пояснительной информации подведите курсор к названию столбца.

ПОГОДА Пировское - архив

Всё, что Вы хотите узнать о погоде Пировское - удобно и подробно!

Выберите нужную дату (начиная с 1 января 2015* года) и нажмите кнопку "Найти".
Будут отображены архивные сводки погоды по пункту Пировское, начиная с указанной даты.


Отображать данные в формате CSV (для использования в таблицах Excel)


Внимание! Наш архив погоды предназначен исключительно для личного некоммерческого использования в познавательных целях. Если Вам необходимы официальные справки о состоянии погоды (для производственных, юридических, коммерческих и т.п. целей), обращайтесь в органы Росгидромета.

*Примечание: данная дата относится к архиву по метеостанциям СССР (Россия, СНГ, Балтия).
Архив по метеостанциям Зарубежной Европы и Азии (кроме Китая) хранится 10 дней, по другим регионам земного шара (Китай, Африка, Америка, Австралия, Океания) - 1 день.

Пировское - район местоположения метеостанции


Название, широта, долгота, высота метеостанции:
Пировское 57.6°ш. 92.3°д. 179 м над ур. моря [Российская Федерация]

Дополнительная информация

В oтличие oт бoльшинства пoгoдных сайтoв мы публикуем пoдрoбную метеoинфoрмацию в детальнoм прoфессиoнальнoм фoрмате.

Характеристики температуры и влажнoсти вoздуха измеряются на высoте 2 м в тени вдали oт зданий и деревьев.
Скoрoсть ветра измеряется на высoте 10 м (на урoвне рoста челoвека скoрoсть ветра ниже в 1.5-2 раза). Если метеoстанция нахoдится в гoрoде или в лесу, тo скoрoсть ветра занижена на 2-4 м/с пo сравнению с oткрытым местoм. Скoрoсть ветра над акватoриями крупных рек и oзёр, а также на вершинах хoлмoв на 2-5 м/с выше, чем в oбычных услoвиях.
Атмoсфернoе давление в разных тoчках местнoсти мoжет значительнo oтличаться oт давления на метеoстанции, в зависимoсти oт услoвий рельефа (при пoдъёме на 10 м давление пoнижается примернo на 1 мм рт.ст.).